TimeEDT,TemperatureF,Dew PointF,Humidity,Sea Level PressureIn,VisibilityMPH,Wind Direction,Wind SpeedMPH,Gust SpeedMPH,PrecipitationIn,Events,Conditions,WindDirDegrees,DateUTC
12:51 AM,51.1,42.1,71,29.88,10.0,NW,5.8,-,N/A,,Partly Cloudy,320,2013-09-23 04:51:00
1:51 AM,50.0,42.1,74,29.89,10.0,NW,6.9,-,N/A,,Clear,320,2013-09-23 05:51:00
2:51 AM,48.0,42.1,80,29.89,10.0,Calm,Calm,-,N/A,,Clear,0,2013-09-23 06:51:00
3:51 AM,46.0,41.0,83,29.91,10.0,West,4.6,-,N/A,,Clear,280,2013-09-23 07:51:00
4:51 AM,46.0,39.9,79,29.92,10.0,WNW,3.5,-,N/A,,Clear,300,2013-09-23 08:51:00
5:51 AM,45.0,39.9,82,29.93,10.0,West,6.9,-,N/A,,Clear,280,2013-09-23 09:51:00
6:51 AM,44.1,39.0,82,29.95,10.0,NW,8.1,-,N/A,,Clear,320,2013-09-23 10:51:00
7:51 AM,48.0,41.0,77,29.97,10.0,NW,8.1,-,N/A,,Clear,310,2013-09-23 11:51:00
8:51 AM,52.0,41.0,66,29.97,10.0,NW,9.2,-,N/A,,Partly Cloudy,320,2013-09-23 12:51:00
9:51 AM,54.0,37.9,55,29.96,10.0,NNW,13.8,20.7,N/A,,Partly Cloudy,340,2013-09-23 13:51:00
10:51 AM,57.0,37.9,49,29.96,10.0,NNW,11.5,19.6,N/A,,Partly Cloudy,330,2013-09-23 14:51:00
11:51 AM,60.1,39.9,47,29.96,10.0,NW,9.2,-,N/A,,Partly Cloudy,320,2013-09-23 15:51:00
12:51 PM,62.1,39.0,43,29.96,10.0,WNW,13.8,-,N/A,,Partly Cloudy,290,2013-09-23 16:51:00
1:51 PM,63.0,41.0,45,29.94,10.0,NW,12.7,-,N/A,,Partly Cloudy,320,2013-09-23 17:51:00
2:51 PM,62.1,39.9,44,29.94,10.0,NW,9.2,16.1,N/A,,Partly Cloudy,320,2013-09-23 18:51:00
3:51 PM,64.0,39.9,41,29.94,10.0,NW,11.5,-,N/A,,Partly Cloudy,320,2013-09-23 19:51:00
4:51 PM,62.1,39.9,44,29.94,10.0,NNW,12.7,-,N/A,,Partly Cloudy,330,2013-09-23 20:51:00
5:51 PM,61.0,42.1,50,29.96,10.0,NW,8.1,-,N/A,,Partly Cloudy,310,2013-09-23 21:51:00
6:51 PM,55.0,43.0,64,29.97,10.0,NW,8.1,-,N/A,,Clear,310,2013-09-23 22:51:00
7:51 PM,52.0,44.1,74,30.00,10.0,WNW,3.5,-,N/A,,Clear,300,2013-09-23 23:51:00
8:51 PM,51.1,43.0,74,30.00,10.0,NW,6.9,-,N/A,,Clear,320,2013-09-24 00:51:00
9:51 PM,50.0,43.0,77,30.01,10.0,NW,6.9,-,N/A,,Clear,320,2013-09-24 01:51:00
10:51 PM,48.0,42.1,80,30.03,10.0,NNW,5.8,-,N/A,,Partly Cloudy,340,2013-09-24 02:51:00
11:51 PM,48.9,43.0,80,30.04,10.0,NNW,3.5,-,N/A,,Mostly Cloudy,340,2013-09-24 03:51:00